RADUGA-1M 2 (36358 NORAD) Tracking and Keplerian Element Data

This shows tracking and keplerian element data for the satellite.

Feedback or suggestion? Click here.




ElementValue
Catalog36358
NameRADUGA-1M 2
Epoch Orbit4509
Epoch Day34.70051556
Epoch Year2025
RAAN85.2973
Inclination2.3209
Eccentricity0.0004098
Argument of Perigee239.3367
Mean Anonmoly146.6848
Mean Motion1.00252629
Decay Rate-1.77E-06
L11 36358U 10002A 25034.70051556 -.00000177 00000+0 00000+0 0 9995
L22 36358 2.3209 85.2973 0004098 239.3367 146.6848 1.00252629 45093



Live tracking and technical data element details for RADUGA-1M 2 (NORAD 36358). RADUGA-1M 2 can be tracked NOW for your location showing map with azimuth and elevation plus other details from your city location.







IsCatalogInMostPopularTable: catalog: 36358, numindb: 546
Update: records affected: 1



GetName: 36358 RADUGA-1M 2

Hit Count: updated at: Sat, 24 May 2025 17:26:22 GMT